This is the latest recevied weather packets stored in our database for station/object DF9PM-13. If no packets are shown the sender has not sent any weather packets the latest 10 day(s).
| Time | Temp. | Humidity | Pressure | Rain* | Wind** | Luminosity | Snow |
|---|---|---|---|---|---|---|---|
| 1777983655 | 19.44° C | 73% | 1007.9 hPa | - | - | - | - |
| 1777983356 | 20° C | 67% | 1007.8 hPa | - | - | - | - |
| 1777983055 | 19.44° C | 66% | 1007.8 hPa | - | - | - | - |
| 1777982755 | 20.56° C | 61% | 1007.9 hPa | - | - | - | - |
| 1777982455 | 21.11° C | 60% | 1007.8 hPa | - | - | - | - |
| 1777982155 | 20.56° C | 63% | 1007.9 hPa | - | - | - | - |
| 1777981855 | 20° C | 64% | 1007.9 hPa | - | - | - | - |
| 1777981555 | 21.67° C | 57% | 1007.9 hPa | - | - | - | - |
| 1777981255 | 20.56° C | 59% | 1007.9 hPa | - | - | - | - |
| 1777980955 | 21.11° C | 54% | 1008 hPa | - | - | - | - |
| 1777980655 | 22.22° C | 52% | 1008 hPa | - | - | - | - |
| 1777980355 | 22.22° C | 50% | 1008.1 hPa | - | - | - | - |
| 1777980055 | 21.67° C | 49% | 1008.1 hPa | - | - | - | - |
| 1777979755 | 21.67° C | 52% | 1008.1 hPa | - | - | - | - |
| 1777979455 | 22.22° C | 49% | 1008.2 hPa | - | - | - | - |
| 1777979155 | 22.22° C | 49% | 1008.2 hPa | - | - | - | - |
| 1777978855 | 22.78° C | 49% | 1008.2 hPa | - | - | - | - |
| 1777978554 | 22.78° C | 50% | 1008.3 hPa | - | - | - | - |
| 1777978254 | 23.33° C | 47% | 1008.3 hPa | - | - | - | - |
| 1777977954 | 22.22° C | 51% | 1008.3 hPa | - | - | - | - |
| 1777977654 | 23.33° C | 48% | 1008.4 hPa | - | - | - | - |
| 1777977355 | 23.33° C | 49% | 1008.5 hPa | - | - | - | - |
| 1777977054 | 22.22° C | 51% | 1008.5 hPa | - | - | - | - |
| 1777976754 | 23.33° C | 51% | 1008.5 hPa | - | - | - | - |
| 1777976454 | 23.33° C | 53% | 1008.5 hPa | - | - | - | - |
* Rain since midnight (hover to see other rain measurements)
** Current wind speed in m/s (hover to see current wind gust speed)